{"data":{"norad_id":57737,"epoch":"2026-09-20T03:51:02.227680Z","epoch_age_seconds":160424,"freshness":"FRESH","line1":"1 57737U 23131F   26263.16044245  .00000850  00000+0  40393-4 0  9999","line2":"2 57737  43.0007 183.5553 0001099 265.5067  94.5659 15.27575115169312","mean_motion":15.27575115,"eccentricity":0.0001099,"inclination_deg":43.0007,"raan_deg":183.5553,"arg_perigee_deg":265.5067,"mean_anomaly_deg":94.5659,"bstar":4.0393e-5,"rev_number":16931,"period_min":94.267050167284,"perigee_km":482.30967756649,"apogee_km":483.81776948552,"semimajor_km":6861.200723526,"source":"CELESTRAK","updated_at":"2026-09-21T09:00:33.679186Z"}}